Timeline UpdatesTrip UpdatesNews PostsPvt Posts♥♥Travel TipsAdmin PostsConv PostsFollowed PostsChat RequestsBlog PostsPNR Posts

Disclaimer
Search
 
 
Sat Dec 20, 2014 03:11:40 ISTHomeTrainsΣChainsAtlasPNRForumGalleryNewsFAQTripsMembersLoginFeedback
Latest...
Cancelled from 31/12/14-15/2/15 #1263410
Sat Nov 01, 2014 (07:19PM)
⇐ Return Journey: Train# 15483

14084⇒15484/Sikkim Mahananda Express

Time-Table HAS CHANGED.
Nov 01 2014 (7:19PM)
Change Departure Station:
Change Arrival Station:
Post a Train Travel TipPost a Train Travel Tip **new
Post a Comment/Question/Picture/VideoPost a Comment/Question/Picture/Video
Pantry/Catering
✓ Pantry Car Avbl
✓ Catering Avbl
RSA - Rake Sharing
Rake/Coach Composition
LOCO-SLR-GS-GS-GS-S1-S2-S3-S4-S5-S6-S7-S8-S9-S10-S11-PC-B1-AB-GS-GS-GS-SLR
Loco
DLI - PNBE: Mughalsarai shed WAP-4 or Ghaziabad shed WAP-4/7 PNBE...
Read more...
- APDJ: WDP4/4B of Siliguri shed. **Spotted with MGS WAP-4 22739 at MGS on 30/03/2013**
News    PNR    Forum    Time-Table    Availability    Fare Chart    Map    Arr/Dep History    Trips    Gallery    ΣChains    X/O    Timeline    
Travel Time: 6h 21m    11 halts    Distance: 316 km    Avg Speed: 49 km/hr
Type: Mail/Express
Zone: NFR/Northeast Frontier
Departs @ 06:35 (Avg 2h 28m late)
Platform# 9
SMTWTFS
Old Delhi Junction/DLI 
Arrives @ 12:56 (Avg 1h 52m late)
Platform# 3
SMTWTFS
Bharthana/BNT 

11 halts. 45 intermediate Stations between Old Delhi Junction and Bharthana

Show ALL intermediate Stations  Show Old Time-Table

#TrkCodeStation NameX/OArrivesAvgDepartsAvgHaltPFDay#KmSpeedElevZoneAddress
1/==/DLIOld Delhi Junction (16)»  -06:40 06:35+2:28910.027219mNRNear Chandni Chowk Metro Station, Delhi NCT
2/==/DSAShahdara Junction (4)X  06:56 06:49+2:3406:58 06:51+2:342m216.325212mNRCircular Rd, Delhi NCT
3/==/GZBGhaziabad Junction (6)X  07:26 07:24+2:2207:28 07:26+2:162m2119.976217mNRGhaziabad, Uttar Pradesh
4/==/CHLChola (3)  08:04+2:1908:06+2:132m--168.058204mNCRTahsil Bulandshahar, Uttar Pradesh
5/==/KRJKhurja Junction (4)X  08:21+2:1408:23+2:172m2182.671199mNCRBulandshahr, Uttar Pradesh
6/==/ALJNAligarh Junction (4)X  09:00+2:0009:05+2:015m21126.182192mNCRAligarh, Uttar Pradesh
7/==/HRSHathras Junction (3)X  09:27+1:5909:32+2:105m11156.286183mNCRMahamaya Nagar(05722-242803), Uttar Pradesh
8/==/JLSJalesar Road (1)X  09:46+2:0109:48+2:032m11176.323172mNCRMDR 106W, Uttar Pradesh
9/==/TDLTundla Junction (5)X  11:00+1:3811:08+1:388m31204.252167mNCRDistt.Firozabad, Uttar Pradesh
10/==/FZDFirozabad (4)  11:30 11:27+1:3411:32+1:322 5m21220.866164mNCRFirozabad, Uttar Pradesh
11/==/SKBShikohabad Junction (4)X  11:53 11:50+1:3311:55+1:332 5m21240.683166mNCRDistrict Firozabad, Uttar Pradesh
12/==/ETWEtawah (5)  12:38 12:35+1:5812:40+1:592 5m31296.075154mNCRDistt. Etawah, Uttar Pradesh
13/==/BNTBharthana (3)•  12:56+1:5212:58+1:542m31315.969147mNCRBharthana, Uttar Pradesh
14/==/ULDAchalda (3)  13:15+1:5313:17+1:542m31335.463147mNCRDist. Auraiya(05688-1072), Uttar Pradesh
15/==/PHDPhaphund (4)X  13:33+1:5313:35+1:542m31352.270146mNCRdist. Auraiya, Uttar Pradesh
16/==/JJKJhinjhak (3)X  13:52+1:5513:54+1:572m31372.067140mNCRAuraiya, Uttar Pradesh
17/==/RURARura (4)  14:11+1:5914:13+2:002m31391.160137mNCRJhinjhak, Uttar Pradesh
18/==/PNKPanki (3) new halt!!X  14:46+2:1714:48+2:192m21423.929129mNCRKANPUR-208 020, Uttar Pradesh
19/==/CNBKanpur Central (10)X  15:12+2:4215:20+2:468m51435.478128mNCRKANPUR-208 001, Uttar Pradesh
20/==/FTPFatehpur (3)  16:23 16:20+2:4616:25+2:472 5m21513.078120mNCRFatehpur, Uttar Pradesh
21/==/ALDAllahabad Junction (10)X  17:55+3:1818:05+3:3810m41629.739100mNCRAllahabad 211003, Uttar Pradesh
22/==%NYNNaini Junction (4)  18:16+3:5018:18+3:532m11636.88698mNCRAllahabad, Uttar Pradesh
23/==/BDLVindhyachal (3)X  19:10+4:4019:12+4:482m21711.62488mNCRMirzapur, Uttar Pradesh
24/==/MZPMirzapur (3)  19:33 19:30+4:4419:35+4:582 5m21718.94588mNCRMirzapur, Uttar Pradesh
25/==/MGSMughal Sarai Junction (8)X  21:00+5:4221:15+5:3815m11782.16683mECRDistt: Chandauli Pin 232101, Uttar Pradesh
26/==/BXRBuxar (3)X  22:41+6:1722:43+6:202m--1876.09167mECRBuxar, Bihar
27/==/ARAAra Junction (3)  23:28+6:0523:30+6:052m--1944.58863mECRDistt: Bhojpur Ph 06182-233411, Bihar
28/==/DNRDanapur (5)  23:57+5:5423:59+6:002m--1984.01658mECRKhagaul, Bihar
29/==/PNBEPatna Junction (10)X00:35+6:0301:00+6:0925m22993.47857mECRPatna 800001, Bihar
30/==/BKPBakhtiyarpur Junction (5)X  01:35+6:5201:37+6:532m--21038.85851mECRPatna, Bihar
31/==/MKAMokama Junction (4)X  02:22+6:3402:24+6:362m--21082.71448mECRPatna, Bihar
32/--%BJUBarauni Junction (9)  03:55+6:4604:00+6:485m121103.34249mECRBegusarai, Bihar
33%--%BGSBegusarai (3)  04:22 04:19+6:4804:24+6:452 5m--21116.84646mECRBegusarai, Bihar
34%==%LKNLakhminia (3)  04:54 04:47+6:4604:56 04:49+6:472m--21134.64845mECRBegusarai, Bihar
35%==%SKJSahibpur Kamal Junction (2)  05:08 05:01+6:4705:10 05:03+6:472m--21144.34641mECRShahpur Kamal, Bihar
36%==%KGGKhagaria Junction (3)XO  05:36 05:19+6:4405:38 05:20+6:482 1m--21156.72043mECRKhagaria, Bihar
37|-=%MNEMansi Junction (4)  05:46+6:3605:48+6:392m--21165.54243mECRMansi, Bihar
38%==%MSKMahes Khunt (2)  06:03+6:3906:05+6:392m--21175.93237mECRMaheshkhunt, Bihar
39%==%PSRPasraha (3)XO  06:28+6:4506:30+6:502m--21188.22541mECRPasraha, Bihar
40%==%NNRNarayanpur (2)XOO  06:58+6:3807:00+6:412m--21199.82739mECRNarayanpur, Bihar
41%==%NNANaugachia (3)X  08:04 07:53+6:1408:06 07:55+6:142m121223.46237mECRBhagalpur, Bihar
42%=-%KUEKurselaX  08:36 08:13+6:1608:38 08:15+6:182m--21241.94231mECRNH 31, Bihar
43%==%CRRKaragola RoadX  08:55 08:39+6:1808:57 08:41+6:182m--21258.96536mECRLachhmipur, Bihar
44%-=%SMOSemapurX  09:11 08:51+6:1809:13 08:53+6:202m--21269.61935mECRKatihar, Bihar
45%--%KIRKatihar Junction (7)  09:30+6:2209:50+6:1620m621281.25135mNFRKatihar 854105, Bihar
46%--%LAVLabha (2)  10:16 10:17+6:2110:18 10:19+6:222m121304.15429mNFRDist : Katihar, Bihar
47%==%AZRAzamnagar Road (3)X  10:41 10:43+6:2710:43 10:45+6:272m--21325.85334mNFRAzamnagar, Bihar
48%==%BOEBarsoi Junction (3)  10:56 11:00+6:2310:58 11:02+6:242m--21339.17337mNFRdist- katihar, Bihar
49%==%DLKDalkhola (3)  11:21 11:26+6:3711:23 11:28+6:372m--21368.27144mNFRDalkola, West Bengal
50%==%KNEKishanGanj (3)  11:48 11:52+6:5511:50 11:54+6:562m121396.77652mNFRKishanganj, Bihar
51%==%AUBAluabari Road (2)  12:15 12:18+6:4712:17 12:20+6:472m221427.3490mNFRDist - uttar Dinajpur, West Bengal
52%==|NJPNew Jalpaiguri Junction (8)X  13:30+6:4113:45+6:4315m121484.122114mNFRCity-Siliguri . Dist-Jalpaiguri, West Bengal
53|--|SGUJSiliguri Junction (6)O  14:05+7:0514:10 14:15+7:075 10m421491.361120mNFRDist - Darjeeling, West Bengal
54|--|NMZNew Mal Junction (3)X  15:06 15:02+8:0015:11 15:07+8:005m--21539.167161mNFRDist - Jalpaiguri, West Bengal
55|--|BNVBinnaguri (3)  15:50 15:47+8:2515:52+8:242 5m--21583.449132mNFRDist : jalpaiguri, West Bengal
56|--|DLODalgaon (3)  16:03+8:3116:05+8:312m--21592.447120mNFRDist : Alipurduar, West Bengal
57|--|HSAHasimara (3)X  16:40 16:37+8:4116:42 16:39+8:432m--21617.717123mNFRDist - Alipurduar, West Bengal
58|--|APDJAlipur Duar Junction (3)  18:00 18:45+8:48---21652.5-53mNFRDist - Alipurduar, West Bengal
Scroll to Top
Scroll to Bottom


Go to Mobile site